| time (UTC) | temp F | wind direction | speed MPH | gust MPH | rain 1hr in | rain 24hr in | rain mn in | humidity % | barometer mb |
| 20260504082002 | 68 | 232 | 4.0 | 101.0 | 0.00 | 0.00 | 0.00 | 4 | 1007.9 |
| 20260504081002 | 68 | 232 | 4.0 | 629.0 | 0.00 | 0.00 | 0.00 | 4 | 1007.8 |
| 20260504050002 | 56 | 193 | 8.0 | 286.0 | 0.00 | 0.00 | 0.00 | 5 | 1007.0 |
| 20260504045003 | 56 | 193 | 8.0 | 178.0 | 0.00 | 0.00 | 0.00 | 5 | 1006.9 |
| 20260504044002 | 56 | 193 | 8.0 | 111.0 | 0.00 | 0.00 | 0.00 | 5 | 1006.8 |
| 20260504043002 | 56 | 193 | 8.0 | 69.0 | 0.00 | 0.00 | 0.00 | 5 | 1006.8 |
| 20260504042002 | 56 | 193 | 8.0 | 43.0 | 0.00 | 0.00 | 0.00 | 5 | 1006.7 |
| 20260504041002 | 56 | 193 | 8.0 | 43.0 | 0.00 | 0.00 | 0.00 | 5 | 1006.6 |
| 20260504040003 | 57 | 189 | 9.0 | 27.0 | 0.00 | 0.00 | 0.00 | 4 | 1006.7 |
| 20260504035002 | 57 | 189 | 9.0 | 115.0 | 0.00 | 0.00 | 0.00 | 4 | 1006.7 |
| 20260504034002 | 57 | 189 | 9.0 | 115.0 | 0.00 | 0.00 | 0.00 | 4 | 1006.6 |
| 20260504033002 | 57 | 189 | 9.0 | 72.0 | 0.00 | 0.00 | 0.00 | 4 | 1006.6 |
| 20260504032002 | 57 | 189 | 9.0 | 72.0 | 0.00 | 0.00 | 0.00 | 4 | 1006.7 |
| 20260504031002 | 57 | 189 | 9.0 | 45.0 | 0.00 | 0.00 | 0.00 | 4 | 1006.6 |
| 20260504030003 | 57 | 189 | 9.0 | 45.0 | 0.00 | 0.00 | 0.00 | 4 | 1006.6 |
| 20260504025002 | 59 | 185 | 9.0 | 28.0 | 0.00 | 0.00 | 0.00 | 4 | 1006.5 |
| 20260504024002 | 59 | 185 | 9.0 | 28.0 | 0.00 | 0.00 | 0.00 | 4 | 1006.5 |
| 20260504023002 | 59 | 185 | 9.0 | 109.0 | 0.00 | 0.00 | 0.00 | 4 | 1006.5 |
| 20260504022002 | 59 | 185 | 9.0 | 109.0 | 0.00 | 0.00 | 0.00 | 4 | 1006.6 |
| 20260504021002 | 59 | 185 | 9.0 | 109.0 | 0.00 | 0.00 | 0.00 | 4 | 1006.6 |
| 20260504020002 | 59 | 185 | 9.0 | 109.0 | 0.00 | 0.00 | 0.00 | 4 | 1006.4 |
| 20260504015002 | 59 | 183 | 10.0 | 109.0 | 0.00 | 0.00 | 0.00 | 4 | 1006.3 |
| 20260504014001 | 59 | 183 | 10.0 | 109.0 | 0.00 | 0.00 | 0.00 | 4 | 1006.4 |
| 20260504013002 | 59 | 183 | 10.0 | 109.0 | 0.00 | 0.00 | 0.00 | 4 | 1006.2 |
| 20260504012002 | 59 | 183 | 10.0 | 680.0 | 0.00 | 0.00 | 0.00 | 4 | 1006.3 |
| 20260504011003 | 59 | 183 | 10.0 | 680.0 | 0.00 | 0.00 | 0.00 | 4 | 1006.3 |
| 20260504010002 | 59 | 183 | 10.0 | 423.0 | 0.00 | 0.00 | 0.00 | 4 | 1006.1 |
| 20260504005004 | 61 | 183 | 10.0 | 423.0 | 0.00 | 0.00 | 0.00 | 4 | 1006.2 |
| 20260504004003 | 61 | 183 | 10.0 | 263.0 | 0.00 | 0.00 | 0.00 | 4 | 1006.2 |
| 20260504003001 | 61 | 183 | 10.0 | 164.0 | 0.00 | 0.00 | 0.00 | 4 | 1006.2 |
| 20260504002003 | 61 | 183 | 10.0 | 102.0 | 0.00 | 0.00 | 0.00 | 4 | 1006.2 |
| 20260504001002 | 61 | 183 | 10.0 | 64.0 | 0.00 | 0.00 | 0.00 | 4 | 1006.3 |
| 20260504000002 | 61 | 183 | 10.0 | 40.0 | 0.00 | 0.00 | 0.00 | 4 | 1006.4 |
| 20260503235002 | 63 | 186 | 10.0 | 40.0 | 0.00 | 0.00 | 0.00 | 4 | 1006.4 |
| 20260503234002 | 63 | 186 | 10.0 | 40.0 | 0.00 | 0.00 | 0.00 | 4 | 1006.4 |
| 20260503233002 | 63 | 186 | 10.0 | 42.0 | 0.00 | 0.00 | 0.00 | 4 | 1006.4 |
| 20260503232002 | 63 | 186 | 10.0 | 42.0 | 0.00 | 0.00 | 0.00 | 4 | 1006.4 |
| 20260503231002 | 63 | 186 | 10.0 | 42.0 | 0.00 | 0.00 | 0.00 | 4 | 1006.5 |
| 20260503230001 | 63 | 186 | 10.0 | 42.0 | 0.00 | 0.00 | 0.00 | 4 | 1006.7 |
| 20260503225003 | 65 | 194 | 11.0 | 42.0 | 0.00 | 0.00 | 0.00 | 3 | 1006.6 |
| 20260503224002 | 65 | 194 | 11.0 | 42.0 | 0.00 | 0.00 | 0.00 | 3 | 1006.6 |
| 20260503223002 | 65 | 194 | 11.0 | 75.0 | 0.00 | 0.00 | 0.00 | 3 | 1006.6 |
| 20260503222002 | 65 | 194 | 11.0 | 47.0 | 0.00 | 0.00 | 0.00 | 3 | 1006.6 |
| 20260503221002 | 65 | 194 | 11.0 | 136.0 | 0.00 | 0.00 | 0.00 | 3 | 1006.7 |
| 20260503220002 | 65 | 194 | 11.0 | 136.0 | 0.00 | 0.00 | 0.00 | 3 | 1006.8 |
| 20260503215002 | 65 | 194 | 11.0 | 136.0 | 0.00 | 0.00 | 0.00 | 3 | 1006.8 |
| 20260503214002 | 66 | 194 | 10.0 | 136.0 | 0.00 | 0.00 | 0.00 | 3 | 1006.8 |
| 20260503213002 | 66 | 194 | 10.0 | 136.0 | 0.00 | 0.00 | 0.00 | 3 | 1006.7 |
| 20260503212003 | 66 | 194 | 10.0 | 136.0 | 0.00 | 0.00 | 0.00 | 3 | 1006.8 |
| 20260503211003 | 66 | 194 | 10.0 | 136.0 | 0.00 | 0.00 | 0.00 | 3 | 1006.7 |
| 20260503210002 | 66 | 194 | 10.0 | 851.0 | 0.00 | 0.00 | 0.00 | 3 | 1006.8 |
| 20260503205002 | 66 | 194 | 10.0 | 851.0 | 0.00 | 0.00 | 0.00 | 3 | 1006.7 |
| 20260503204002 | 68 | 190 | 10.0 | 529.0 | 0.00 | 0.00 | 0.00 | 3 | 1006.8 |
| 20260503203002 | 68 | 190 | 10.0 | 529.0 | 0.00 | 0.00 | 0.00 | 3 | 1006.8 |
| 20260503202002 | 68 | 190 | 10.0 | 329.0 | 0.00 | 0.00 | 0.00 | 3 | 1006.7 |
| 20260503201002 | 68 | 190 | 10.0 | 205.0 | 0.00 | 0.00 | 0.00 | 3 | 1006.8 |
| 20260503200002 | 68 | 190 | 10.0 | 128.0 | 0.00 | 0.00 | 0.00 | 3 | 1006.8 |
| 20260503195002 | 68 | 190 | 10.0 | 80.0 | 0.00 | 0.00 | 0.00 | 3 | 1006.9 |
| 20260503194002 | 69 | 185 | 10.0 | 80.0 | 0.00 | 0.00 | 0.00 | 3 | 1006.9 |
| 20260503193002 | 69 | 185 | 10.0 | 50.0 | 0.00 | 0.00 | 0.00 | 3 | 1006.8 |
| 20260503192002 | 69 | 185 | 10.0 | 50.0 | 0.00 | 0.00 | 0.00 | 3 | 1006.8 |
| 20260503191002 | 69 | 185 | 10.0 | 50.0 | 0.00 | 0.00 | 0.00 | 3 | 1006.8 |
| 20260503190002 | 69 | 185 | 10.0 | 50.0 | 0.00 | 0.00 | 0.00 | 3 | 1006.7 |
| 20260503185002 | 69 | 185 | 10.0 | 50.0 | 0.00 | 0.00 | 0.00 | 3 | 1006.6 |
| 20260503184003 | 72 | 182 | 8.0 | 50.0 | 0.00 | 0.00 | 0.00 | 3 | 1006.6 |
| 20260503183002 | 72 | 182 | 8.0 | 39.0 | 0.00 | 0.00 | 0.00 | 3 | 1006.5 |
| 20260503182002 | 72 | 182 | 8.0 | 39.0 | 0.00 | 0.00 | 0.00 | 3 | 1006.4 |
| 20260503181003 | 72 | 182 | 8.0 | 39.0 | 0.00 | 0.00 | 0.00 | 3 | 1006.4 |
| 20260503180004 | 72 | 182 | 8.0 | 39.0 | 0.00 | 0.00 | 0.00 | 3 | 1006.3 |
| 20260503175002 | 72 | 182 | 8.0 | 39.0 | 0.00 | 0.00 | 0.00 | 3 | 1006.3 |
| 20260503174003 | 75 | 183 | 8.0 | 39.0 | 0.00 | 0.00 | 0.00 | 2 | 1006.3 |
| 20260503173002 | 75 | 183 | 8.0 | 35.0 | 0.00 | 0.00 | 0.00 | 2 | 1006.3 |
| 20260503172003 | 75 | 183 | 8.0 | 35.0 | 0.00 | 0.00 | 0.00 | 2 | 1006.3 |
| 20260503171002 | 75 | 183 | 8.0 | 35.0 | 0.00 | 0.00 | 0.00 | 2 | 1006.3 |
| 20260503151002 | 77 | 188 | 10.0 | 21.0 | 0.00 | 0.00 | 0.00 | 2 | 1006.9 |
| 20260503131003 | 78 | 193 | 8.0 | 297.0 | 0.00 | 0.00 | 0.00 | 2 | 1008.2 |